This is the latest recevied weather packets stored in our database for station/object EA7OC-10. If no packets are shown the sender has not sent any weather packets the latest 10 day(s).
| Time | Temp. | Humidity | Pressure | Rain* | Wind** | Luminosity | Snow |
|---|---|---|---|---|---|---|---|
| 1787929658 | 41.11° C | 32% | 1018.8 hPa | - | - | - | - |
| 1787928767 | 41.11° C | 33% | 1019 hPa | - | - | - | - |
| 1787927867 | 40° C | 33% | 1019.2 hPa | - | - | - | - |
| 1787926967 | 38.89° C | 33% | 1019.3 hPa | - | - | - | - |
| 1787926066 | 38.33° C | 33% | 1019.3 hPa | - | - | - | - |
| 1787925166 | 38.33° C | 33% | 1019.5 hPa | - | - | - | - |
| 1787924266 | 37.78° C | 33% | 1019.7 hPa | - | - | - | - |
| 1787923366 | 37.78° C | 32% | 1020 hPa | - | - | - | - |
| 1787922466 | 36.67° C | 33% | 1020.2 hPa | - | - | - | - |
| 1787921566 | 36.11° C | 32% | 1020.3 hPa | - | - | - | - |
| 1787920666 | 36.67° C | 33% | 1020.4 hPa | - | - | - | - |
| 1787919766 | 36.67° C | 33% | 1020.5 hPa | - | - | - | - |
| 1787918866 | 36.11° C | 33% | 1020.7 hPa | - | - | - | - |
| 1787917965 | 35.56° C | 33% | 1020.8 hPa | - | - | - | - |
| 1787917065 | 35.56° C | 33% | 1020.9 hPa | - | - | - | - |
| 1787916165 | 36.11° C | 33% | 1020.9 hPa | - | - | - | - |
| 1787915265 | 35° C | 33% | 1021.2 hPa | - | - | - | - |
| 1787914365 | 34.44° C | 34% | 1021.4 hPa | - | - | - | - |
| 1787913465 | 33.89° C | 34% | 1021.6 hPa | - | - | - | - |
| 1787912565 | 34.44° C | 32% | 1021.6 hPa | - | - | - | - |
| 1787911665 | 35.56° C | 32% | 1021.7 hPa | - | - | - | - |
| 1787910764 | 35.56° C | 34% | 1021.8 hPa | - | - | - | - |
| 1787909864 | 35.56° C | 34% | 1021.8 hPa | - | - | - | - |
| 1787908964 | 35° C | 34% | 1021.8 hPa | - | - | - | - |
| 1787908064 | 34.44° C | 33% | 1021.8 hPa | - | - | - | - |
* Rain since midnight (hover to see other rain measurements)
** Current wind speed in m/s (hover to see current wind gust speed)